Fort Benning, AL

3:54 AM CDT on June 29, 2017 (GMT -0500)
Lawson Army Air Field

Weather History for KLSF - November, 2012

Change the Weather History Date:

Thursday, November 1, 2012

  Actual Average Record
Temperature  
Mean Temperature 52 °F -  
Max Temperature 71 °F 72 °F 89 °F (2016)
Min Temperature 33 °F 46 °F 30 °F (2008)
Degree Days  
Heating Degree Days 13    
Growing Degree Days 2 (Base 50)    
Moisture  
Dew Point 37 °F    
Average Humidity 86    
Maximum Humidity 100    
Minimum Humidity 22    
Precipitation  
Precipitation 0.00 in - - ()
Sea Level Pressure  
Sea Level Pressure 29.99 in    
Wind  
Wind Speed 2 mph (SE)    
Max Wind Speed 13 mph    
Max Gust Speed 21 mph    
Visibility 5 miles    
Events      
Averages and records for this station are not official NWS values.
T = Trace of Precipitation, MM = Missing Value Source: NWS Daily Summary

Daily Weather History Graph

Daily Weather History Graph

Search for Another Location

Airport or City:

Trip Planner

Search our weather history database for the weather conditions in past years. The results will help you decide how hot, cold, wet, or windy it might be!

Date:

Astronomy

Nov. 01, 2012 Rise Set
Actual Time 7:57 AM EDT 6:49 PM EDT
Civil Twilight 7:32 AM EDT 7:14 PM EDT
Nautical Twilight 7:03 AM EDT 7:43 PM EDT
Astronomical Twilight 6:34 AM EDT 8:12 PM EDT
Moon 8:52 PM EDT (11/1) 10:22 AM EDT (11/1)
Length of Visible Light 11h 42m
Length of Day
10h 51m
Waning Gibbous, 93% of the Moon is Illuminated
Nov 1
Waning Gibbous
Nov 6
Last Quarter
Nov 13
New
Nov 20
First Quarter
Nov 28
Full

Hourly Weather History & Observations

Time (EDT) Temp. Windchill Dew Point Humidity Pressure Visibility Wind Dir Wind Speed Gust Speed Precip Events Conditions
12:55 AM 45.7 °F - 43.5 °F 92% 29.95 in 10.0 mi Calm Calm - N/A   Clear
1:55 AM 43.9 °F - 42.4 °F 95% 29.95 in 10.0 mi Calm Calm - N/A   Clear
2:55 AM 42.3 °F - 41.5 °F 97% 29.96 in 9.0 mi Calm Calm - N/A   Clear
3:55 AM 41.5 °F - 41.4 °F 99% 29.96 in 8.0 mi Calm Calm - N/A   Clear
4:29 AM 41.0 °F - 41.0 °F 100% 29.97 in 2.5 mi Calm Calm - N/A   Clear
4:33 AM 41.0 °F - 41.0 °F 100% 29.97 in 2.0 mi Calm Calm - N/A   Clear
4:35 AM 41.0 °F - 41.0 °F 100% 29.97 in 2.5 mi Calm Calm - N/A   Clear
4:37 AM 41.0 °F - 41.0 °F 100% 29.97 in 3.0 mi Calm Calm - N/A   Clear
4:43 AM 41.0 °F 39.0 °F 41.0 °F 100% 29.97 in 2.5 mi SE 3.5 mph - N/A   Clear
4:44 AM 41.0 °F 39.0 °F 41.0 °F 100% 29.97 in 1.5 mi SE 3.5 mph - N/A   Clear
4:45 AM 41.0 °F 39.0 °F 41.0 °F 100% 29.97 in 1.2 mi SE 3.5 mph - N/A   Clear
4:46 AM 41.0 °F 39.0 °F 41.0 °F 100% 29.97 in 1.0 mi SE 3.5 mph - N/A   Clear
4:47 AM 41.0 °F 39.0 °F 41.0 °F 100% 29.97 in 0.8 mi SE 3.5 mph - N/A   Clear
4:49 AM 41.0 °F 39.0 °F 39.2 °F 93% 29.97 in 0.8 mi SE 3.5 mph - N/A   Clear
4:53 AM 41.0 °F 39.0 °F 39.2 °F 93% 29.97 in 0.8 mi SE 3.5 mph - N/A   Clear
4:55 AM 40.1 °F 38.0 °F 39.9 °F 99% 29.97 in 1.0 mi SE 3.5 mph - N/A   Clear
4:56 AM 39.2 °F 37.0 °F 39.2 °F 100% 29.97 in 1.2 mi SE 3.5 mph - N/A   Clear
4:57 AM 39.2 °F 37.0 °F 39.2 °F 100% 29.97 in 1.5 mi SE 3.5 mph - N/A   Clear
4:58 AM 39.2 °F - 39.2 °F 100% 29.97 in 2.0 mi Calm Calm - N/A   Clear
4:59 AM 39.2 °F - 39.2 °F 100% 29.97 in 3.0 mi Calm Calm - N/A   Clear
5:19 AM 39.2 °F - 39.2 °F 100% 29.97 in 5.0 mi Calm Calm - N/A   Clear
5:24 AM 39.2 °F - 37.4 °F 93% 29.97 in 7.0 mi Calm Calm - N/A   Clear
5:55 AM 36.0 °F 33.3 °F 35.6 °F 99% 29.98 in 7.0 mi SE 3.5 mph - N/A   Clear
6:02 AM 35.6 °F - 35.6 °F 100% 29.98 in 2.5 mi Calm Calm - N/A   Clear
6:05 AM 35.6 °F - 35.6 °F 100% 29.98 in 2.5 mi Calm Calm - N/A   Clear
6:11 AM 35.6 °F 32.8 °F 35.6 °F 100% 29.99 in 1.8 mi SE 3.5 mph - N/A   Clear
6:16 AM 35.6 °F 32.8 °F 35.6 °F 100% 29.99 in 2.0 mi SE 3.5 mph - N/A   Clear
6:19 AM 35.6 °F 32.8 °F 35.6 °F 100% 29.99 in 3.0 mi SE 3.5 mph - N/A   Clear
6:28 AM 35.6 °F 32.8 °F 35.6 °F 100% 29.99 in 6.0 mi ESE 3.5 mph - N/A   Clear
6:45 AM 35.6 °F - 33.8 °F 93% 29.99 in 6.0 mi Calm Calm - N/A   Clear
6:50 AM 35.6 °F - 35.6 °F 100% 29.99 in 2.5 mi Calm Calm - N/A   Clear
6:53 AM 35.6 °F - 35.6 °F 100% 29.99 in 1.8 mi Calm Calm - N/A   Clear
6:54 AM 35.6 °F - 35.6 °F 100% 30.00 in 1.5 mi Calm Calm - N/A   Clear
6:55 AM 35.2 °F - 34.9 °F 99% 30.00 in 1.2 mi Calm Calm - N/A   Clear
6:59 AM 35.6 °F - 35.6 °F 100% 30.00 in 1.2 mi Calm Calm - N/A   Clear
7:00 AM 35.6 °F - 35.6 °F 100% 30.00 in 1.5 mi Calm Calm - N/A   Clear
7:01 AM 35.6 °F - 35.6 °F 100% 30.00 in 1.5 mi Calm Calm - N/A   Clear
7:02 AM 35.6 °F - 35.6 °F 100% 30.00 in 1.8 mi Calm Calm - N/A   Clear
7:03 AM 35.6 °F - 35.6 °F 100% 30.00 in 2.0 mi Calm Calm - N/A   Clear
7:05 AM 35.6 °F - 35.6 °F 100% 30.00 in 3.0 mi Calm Calm - N/A   Clear
7:09 AM 35.6 °F - 35.6 °F 100% 30.00 in 2.5 mi Calm Calm - N/A   Clear
7:13 AM 35.6 °F - 35.6 °F 100% 30.00 in 2.0 mi Calm Calm - N/A   Clear
7:18 AM 35.6 °F 32.8 °F 35.6 °F 100% 30.00 in 3.0 mi SE 3.5 mph - N/A   Clear
7:25 AM 35.6 °F 32.8 °F 35.6 °F 100% 30.00 in 7.0 mi SE 3.5 mph - N/A   Clear
7:31 AM 33.8 °F 29.6 °F 33.8 °F 100% 30.00 in 8.0 mi SE 4.6 mph - N/A   Clear
7:55 AM 33.4 °F 30.4 °F 33.3 °F 99% 30.00 in 10.0 mi SE 3.5 mph - N/A   Clear
8:55 AM 37.8 °F 35.3 °F 37.6 °F 99% 30.02 in 10.0 mi SE 3.5 mph - N/A   Clear
9:55 AM 48.2 °F - 41.2 °F 77% 30.04 in 10.0 mi West 3.5 mph - N/A   Clear
10:55 AM 57.2 °F - 30.9 °F 37% 30.05 in 10.0 mi NW 8.1 mph - N/A   Clear
11:55 AM 61.5 °F - 30.7 °F 31% 30.05 in 10.0 mi NNW 10.4 mph - N/A   Clear
12:55 PM 65.3 °F - 32.5 °F 29% 30.02 in 10.0 mi NNW 11.5 mph - N/A   Clear
1:55 PM 68.9 °F - 31.6 °F 25% 29.99 in 10.0 mi WNW 11.5 mph 18.4 mph N/A   Clear
2:55 PM 70.0 °F - 28.9 °F 22% 29.96 in 10.0 mi West 9.2 mph - N/A   Clear
3:55 PM 71.6 °F - 30.6 °F 22% 29.94 in 10.0 mi NW 11.5 mph 20.7 mph N/A   Clear
4:55 PM 71.1 °F - 31.8 °F 23% 29.94 in 10.0 mi WNW 12.7 mph - N/A   Clear
5:55 PM 68.4 °F - 31.5 °F 25% 29.95 in 10.0 mi NW 12.7 mph - N/A   Clear
6:55 PM 56.5 °F - 33.4 °F 42% 29.97 in 10.0 mi NW 8.1 mph - N/A   Clear
7:55 PM 52.0 °F - 36.0 °F 54% 30.00 in 10.0 mi Calm Calm - N/A   Clear
8:55 PM 49.6 °F - 36.1 °F 60% 30.00 in 10.0 mi Calm Calm - N/A   Clear
9:55 PM 45.5 °F - 36.0 °F 69% 30.02 in 10.0 mi Calm Calm - N/A   Clear
10:55 PM 44.2 °F - 35.4 °F 71% 30.03 in 10.0 mi Calm Calm - N/A   Clear
11:55 PM 40.1 °F 36.9 °F 35.8 °F 85% 30.04 in 10.0 mi ESE 4.6 mph - N/A   Clear